Location: Unspecified
(37.7830°S, 0.0000°E)
Time: 08:51:11
(UTC+00:00)

ISS - Visible Passes

Search period start: 19 May 2019 00:00
Search period end: 29 May 2019 00:00
Orbit: 408 x 410 km, 51.6° (Epoch: 19 May)

Date Brightness Start Highest point End Pass type
(mag) Time Alt. Az. Time Alt. Az. Time Alt. Az.
22 May -0.5 05:53:25 10° NNE 05:55:12 14° NE 05:56:58 10° E visible
24 May -2.2 05:46:29 10° NNW 05:49:35 36° NE 05:52:43 10° ESE visible
25 May -1.1 04:56:58 13° NNE 04:58:46 19° NE 05:01:13 10° E visible
25 May -3.2 06:31:56 10° WNW 06:35:07 40° SW 06:38:21 10° SE visible
26 May -3.9 05:42:15 24° WNW 05:44:05 76° SW 05:47:29 10° SE visible
27 May -2.1 04:54:18 33° ESE 04:54:18 33° ESE 04:56:26 10° ESE visible
27 May -2.2 06:27:19 10° WSW 06:29:55 20° SSW 06:32:32 10° SSE visible
28 May -2.8 05:38:50 31° SSW 05:38:50 31° SSW 05:41:48 10° SSE visible
